Regional Weather Roundup
Issued by NWS

Home | Current Version | Previous Version | Graphics & Text | Print | Product List | Glossary On
Versions: 1 2 3 4 5 6 7 8 9 10 11 12 13 14 15 16 17 18 19 20 21 22 23 24 25 26 27 28 29 30 31 32 33 34 35 36 37 38 39 40 41 42 43 44 45 46 47 48 49 50
091
ASUS43 KLMK 040910
RWRKY
KENTUCKY REGIONAL WEATHER ROUNDUP
NATIONAL WEATHER SERVICE LOUISVILLE KY
400 AM EST SUN DEC 04 2016

NOTE "FAIR" INDICATES FEW OR NO CLOUDS BELOW 12,000 FEET
WITH NO SIGNIFICANT WEATHER AND/OR OBSTRUCTIONS TO VISIBILITY.

KYZ001>023-026-027-061>063-070>075-041000-
WESTERN AND SOUTH CENTRAL KENTUCKY

CITY           SKY/WX    TMP DP  RH WIND       PRES   REMARKS
PADUCAH        CLOUDY    40  36  86 NE7       30.14S
HENDERSON      CLOUDY    39  30  70 E9        30.18F WCI  33
OWENSBORO      CLOUDY    41  32  70 E7        30.19S
HOPKINSVILLE   DRIZZLE   39  39 100 E8        30.12F WCI  34
BOWLING GREEN  LGT RAIN  40  37  89 E7        30.17F
GLASGOW        LGT RAIN  38  38 100 E6        30.17F WCI  33
$$

KYZ024-025-028>034-038-045-046-053-041000-
NORTH CENTRAL KENTUCKY

CITY           SKY/WX    TMP DP  RH WIND       PRES   REMARKS
LOUISVILLE/SDF CLOUDY    41  28  60 E7        30.20F
LOUISVILLE/LOU CLOUDY    41  29  62 E6        30.21F
FORT KNOX      CLOUDY    39  31  73 E6        30.17S WCI  34
$$

KYZ035>037-039>044-047>052-055>060-089>105-041000-
NORTHEAST KENTUCKY

CITY           SKY/WX    TMP DP  RH WIND       PRES   REMARKS
LEXINGTON      CLOUDY    39  29  67 E7        30.20F WCI  34
COVINGTON      CLOUDY    37  31  78 E6        30.21F WCI  32
FRANKFORT      CLOUDY    38  29  70 E7        30.19F WCI  33
$$

KYZ054-064>069-076>088-106>120-041000-
SOUTHEAST KENTUCKY

CITY           SKY/WX    TMP DP  RH WIND       PRES   REMARKS
JACKSON        CLOUDY    37  28  70 CALM      30.21F
LONDON         LGT RAIN  38  30  73 CALM      30.20F
SOMERSET       LGT RAIN  36  34  93 CALM      30.22F
MIDDLESBORO    LGT RAIN  38  38  97 CALM      30.23F
MONTICELLO     LGT RAIN  38  35  89 W6        30.21F WCI  33
$$





USA.gov is the U.S. government's official web portal to all federal, state and local government web resources and services.